Flag for U.S.A. Weather past 2 weeks in Medford, Oregon, U.S.A.

Now
58 °F

Passing clouds.


Feels Like: 57 °F
Forecast: 53 / 62 °F
Wind: 6 mph from North

Location: Rogue Valley International Airport

Current Time: Oct 25, 2014 at 8:20:28 AM

Latest Report: Oct 25, 2014 at 7:53 AM


Visibility: 10 mi

Pressure: 29.53 "Hg

Humidity: 65%

Dew point: 46 °F

Location of MedfordLocation

Historic Weather in Medford — Graph

°F

Medford temperature yesterday

Maximum temperature yesterday: 69 °F (at 4:53 PM)
Minimum temperature yesterday: 52 °F (at 4:53 AM)
Average temperature yesterday: 57 °F

Past Weeks' High & Low Weather Summary

 TemperatureHumidityPressure
High81 °F (Oct 13, 3:53 PM)97% (Oct 14, 10:53 PM)30.31 "Hg (Oct 14, 10:53 PM)
Low41 °F (Oct 13, 7:53 AM)17% (Oct 13, 5:53 PM)29.47 "Hg (Oct 25, 3:53 AM)
Average58 °F71%29.93 "Hg
* Reported Oct 10 6:53 AM — Oct 25 6:53 AM, Medford, Weather by CustomWeather, © 2014

Note: Actual official high and low records may vary slightly from our data, if they occured in-between our weather recording intervals... More about our weather records

Advertising

Medford weather history for previous 24 hours

 ConditionsComfort  
Time TempWeatherWind HumidityBarometerVisibility
6:53 AM
Oct 25
54 °FClear.8 mph90%29.57 "Hg10 mi
5:53 AM56 °FLight rain. Overcast.7 mph84%29.60 "Hg10 mi
4:53 AM56 °FLight rain. Overcast.9 mph81%29.57 "Hg10 mi
3:53 AM64 °FClear.23 mph50%29.47 "Hg10 mi
2:53 AM60 °FClear.16 mph60%29.55 "Hg10 mi
1:53 AM51 °FClear.No wind92%29.59 "Hg10 mi
12:57 AM51 °FFog.No wind96%29.62 "Hg2 mi
11:53 PM
Oct 24
53 °FClear.No wind96%29.63 "Hg9 mi
10:53 PM55 °FClear.No wind93%29.66 "Hg10 mi
9:53 PM56 °FClear.3 mph90%29.67 "Hg10 mi
8:53 PM59 °FClear.No wind87%29.67 "Hg10 mi
7:53 PM58 °FClear.No wind90%29.68 "Hg10 mi
6:53 PM62 °FSunny.No wind80%29.69 "Hg10 mi
5:53 PM65 °FSunny.6 mph70%29.70 "Hg10 mi
4:53 PM69 °FSunny.5 mph59%29.72 "Hg10 mi
3:53 PM68 °FSunny.3 mph59%29.74 "Hg10 mi
2:53 PM66 °FSunny.8 mph63%29.77 "Hg10 mi
1:53 PM64 °FSunny.5 mph65%29.80 "Hg10 mi
12:53 PM62 °FSunny.5 mph73%29.84 "Hg10 mi
11:53 AM57 °FBroken clouds.8 mph83%29.88 "Hg10 mi
10:53 AM54 °FFog.5 mph90%29.90 "Hg6 mi
9:53 AM53 °FCloudy.3 mph89%29.90 "Hg10 mi
8:53 AM52 °FMostly cloudy.No wind97%29.94 "Hg8 mi
Weather by CustomWeather, © 2014

See weather overviewHow to use our weather pages